Regional Weather Roundup
Issued by NWS

Home | Current Version | Previous Version | Graphics & Text | Print | Product List | Glossary Off
Versions: 1 2 3 4 5 6 7 8 9 10 11 12 13 14 15 16 17 18 19 20 21 22 23 24 25 26 27 28 29 30 31 32 33 34 35 36 37 38 39 40 41 42 43 44 45 46 47 48 49 50

000
ASUS43 KMKX 290021
RWRWI

WISCONSIN REGIONAL WEATHER ROUNDUP
NATIONAL WEATHER SERVICE MILWAUKEE/SULLIVAN WI
700 PM CDT WED JUN 28 2017

NOTE: "FAIR" INDICATES FEW OR NO CLOUDS BELOW 12,000 FEET WITH NO
SIGNIFICANT WEATHER AND/OR OBSTRUCTIONS TO VISIBILITY.

WIZ001-002-006>008-014>016-023>028-290100-
NORTHWEST WISCONSIN

CITY           SKY/WX    TMP DP  RH WIND       PRES   REMARKS
SUPERIOR ARPT  NOT AVBL
ASHLAND        CLOUDY    66  64  93 VRB3      29.53F
6HR MIN TEMP:  62; 6HR MAX TEMP:  66; 6HR PCP:  0.22;

HAYWARD        TSTM      67  65  93 S5        29.52S FOG
6HR MIN TEMP:  62; 6HR MAX TEMP:  68; 6HR PCP:  0.18;

SIREN          CLOUDY    68  66  94 SW6       29.51S
6HR MIN TEMP:  65; 6HR MAX TEMP:  73;

CUMBERLAND     CLOUDY    68  64  88 SW8       29.53S
RICE LAKE      CLOUDY    68  67  94 SE7       29.54F
6HR MIN TEMP:  66; 6HR MAX TEMP:  72; 6HR PCP:  0.15;

CHETEK         CLOUDY    68  68  99 SW5       29.55S
6HR MIN TEMP:  65; 6HR MAX TEMP:  73; 6HR PCP:  0.25;

LADYSMITH      RAIN      69  67  94 S6        29.58S
6HR MIN TEMP:  63; 6HR MAX TEMP:  69; 6HR PCP:  0.33;

EAU CLAIRE     CLOUDY    69  67  93 S13       29.55S
6HR MIN TEMP:  67; 6HR MAX TEMP:  74; 6HR PCP:  0.06;

MENOMONIE      CLOUDY    69  68  99 NE3       29.56R
6HR MIN TEMP:  66; 6HR MAX TEMP:  75; 6HR PCP:  0.19;

NEW RICHMOND   PTSUNNY   74  65  74 W7        29.53S
6HR MIN TEMP:  67; 6HR MAX TEMP:  76; 6HR PCP:  0.08;

OSCEOLA        CLOUDY    73  66  80 SW6       29.54S
6HR MIN TEMP:  68; 6HR MAX TEMP:  78; 6HR PCP:  0.95;

$$

WIZ003>005-009-010-017-018-290100-
NORTH CENTRAL WISCONSIN

CITY           SKY/WX    TMP DP  RH WIND       PRES   REMARKS
MANITOWISH WTR CLOUDY    62  62 100 S9        29.61F
6HR MIN TEMP:  60; 6HR MAX TEMP:  62; 6HR PCP:  0.22;

ARBOR VITAE    CLOUDY    63  62  96 S6        29.62F
6HR MIN TEMP:  62; 6HR MAX TEMP:  63; 6HR PCP:  0.09;

WOODRUFF       CLOUDY    63  62  96 S6        29.62F
6HR MIN TEMP:  62; 6HR MAX TEMP:  63; 6HR PCP:  0.09;

RHINELANDER    CLOUDY    63  63 100 S5        29.64F
6HR MIN TEMP:  59; 6HR MAX TEMP:  63; 6HR PCP:  0.38;

EAGLE RIVER    DRIZZLE   62  62 100 SE6       29.63F
6HR MIN TEMP:  60; 6HR MAX TEMP:  62;

LAND O LAKES   LGT RAIN  63  62  97 SE6       29.66S
6HR MIN TEMP:  61; 6HR MAX TEMP:  63;

PHILLIPS       CLOUDY    65  65 100 SE7       29.58F
6HR MIN TEMP:  61; 6HR MAX TEMP:  65; 6HR PCP:  0.16;

TOMAHAWK       NOT AVBL
MEDFORD        LGT RAIN  66  64  94 S12       29.62S
6HR MIN TEMP:  60; 6HR MAX TEMP:  67; 6HR PCP:  0.04;

MERRILL        CLOUDY    66  66  98 S6        29.64S
$$

WIZ029-030-035-036-043>047-290100-
CENTRAL WISCONSIN

CITY           SKY/WX    TMP DP  RH WIND       PRES   REMARKS
WAUSAU         CLOUDY    67  64  90 S10       29.63S
6HR MIN TEMP:  61; 6HR MAX TEMP:  67; 6HR PCP:  0.19;

MOSINEE        CLOUDY    66  66 100 S9        29.65S
MARSHFIELD     CLOUDY    67  64  90 SW5       29.62F
6HR MIN TEMP:  63; 6HR MAX TEMP:  70; 6HR PCP:  0.01;

STEVENS POINT  CLOUDY    66  66  99 S8        29.66F
6HR MIN TEMP:  60; 6HR MAX TEMP:  67; 6HR PCP:  0.11;

WAUPACA        CLOUDY    69  68  96 SE5       29.68S
6HR MIN TEMP:  66; 6HR MAX TEMP:  69;

WAUTOMA        PTSUNNY   68  66  94 SE6       29.63F
6HR MIN TEMP:  64; 6HR MAX TEMP:  69; 6HR PCP:  0.52;

WISC RAPIDS    CLOUDY    69  66  90 S5        29.64F
6HR MIN TEMP:  64; 6HR MAX TEMP:  69; 6HR PCP:  0.06;

CAMP DOUGLAS   CLOUDY    68  66  94 SE3       29.61F
                                      6HR PCP:  0.32;

$$

WIZ011>013-019>022-031-037>040-048>050-290100-
NORTHEAST WISCONSIN

CITY           SKY/WX    TMP DP  RH WIND       PRES   REMARKS
ANTIGO         CLOUDY    64  64 100 S10       29.67F
6HR MIN TEMP:  59; 6HR MAX TEMP:  64; 6HR PCP:  0.14;

SHAWANO        CLOUDY    70  64  83 S6        29.67F
OCONTO         CLOUDY    64  62  95 SE7       29.68R
6HR MIN TEMP:  62; 6HR MAX TEMP:  67; 6HR PCP:  0.11;

STURGEON BAY     N/A     60  58  92 S18G28    29.71F
6HR MIN TEMP:  59; 6HR MAX TEMP:  61; 6HR PCP: TRACE;

GREEN BAY      CLOUDY    68  66  93 S12       29.69R
6HR MIN TEMP:  64; 6HR MAX TEMP:  69; 6HR PCP:  0.21;

MANITOWOC      CLOUDY    60  58  92 S16       29.72F FOG
6HR MIN TEMP:  58; 6HR MAX TEMP:  62; 6HR PCP:  0.41;

APPLETON       CLOUDY    66  66 100 S9        29.69S
CLINTONVILLE   CLOUDY    68  64  88 S7        29.67F
OSHKOSH        LGT RAIN  68  65  90 S12G24    29.66F
6HR MIN TEMP:  63; 6HR MAX TEMP:  69; 6HR PCP:  0.30;

$$

WIZ032>034-041-042-053>061-290100-
SOUTHWEST WISCONSIN

CITY           SKY/WX    TMP DP  RH WIND       PRES   REMARKS
LA CROSSE      CLOUDY    75  66  73 S13       29.58F
6HR MIN TEMP:  72; 6HR MAX TEMP:  75; 6HR PCP:  0.04;

SPARTA         CLOUDY    68  65  91 SW3       29.61F
6HR MIN TEMP:  65; 6HR MAX TEMP:  70; 6HR PCP:  0.10;

VIROQUA        CLOUDY    67  66  97 SW7       29.62F
6HR MIN TEMP:  65; 6HR MAX TEMP:  68; 6HR PCP:  0.19;

BOSCOBEL       CLOUDY    69  65  86 SW12G20   29.64S
6HR MIN TEMP:  65; 6HR MAX TEMP:  75; 6HR PCP:  1.49;

PRAIRIE DU CHI CLOUDY    64  63  95 CALM      29.63F
6HR MIN TEMP:  64; 6HR MAX TEMP:  74; 6HR PCP:  1.23;

PLATTEVILLE    NOT AVBL
$$

WIZ056-057-062-063-064-067-068-290100-
SOUTH CENTRAL WISCONSIN

CITY           SKY/WX    TMP DP  RH WIND       PRES   REMARKS
REEDSBURG      CLOUDY    68  68 100 S6        29.62F
6HR MIN TEMP:  65; 6HR MAX TEMP:  70; 6HR PCP:  0.14;

BARABOO/DELLS  LGT RAIN  68  64  87 CALM      29.62F
6HR MIN TEMP:  64; 6HR MAX TEMP:  69; 6HR PCP:  0.21;

LONE ROCK      CLOUDY    71  65  81 W9        29.64R THUNDER
6HR MIN TEMP:  68; 6HR MAX TEMP:  75; 6HR PCP:  0.87;

MINERAL POINT  RAIN      66  66 100 SW13      29.68R
MADISON        TSTM      64  61  90 SE20G29   29.65F VSB 1/2
6HR MIN TEMP:  66; 6HR MAX TEMP:  73; 6HR PCP:  0.12;

MIDDLETON      CLOUDY    71  68  90 NW9G24    29.74R
6HR MIN TEMP:  67; 6HR MAX TEMP:  77; 6HR PCP:  0.30;

WATERTOWN      TSTM      63  63 100 S8        29.74R
6HR MIN TEMP:  62; 6HR MAX TEMP:  72;

MONROE         TSTM      72  66  83 S28G33    29.61F
JANESVILLE     CLOUDY    75  66  73 S20G25    29.71F
$$

WIZ051-052-058>065-066-070>072-290100-
SOUTHEAST WISCONSIN

CITY           SKY/WX    TMP DP  RH WIND       PRES   REMARKS
MILWAUKEE      CLOUDY    72  67  84 S7        29.74F
6HR MIN TEMP:  68; 6HR MAX TEMP:  75; 6HR PCP:  0.28;

WAUKESHA       CLOUDY    64  61  88 NW20G26   29.81R
MILWAUKEE/TIMM TSTM      64  59  82 W17G44    29.81R
RACINE         MOSUNNY   73  65  75 S10       29.75F
6HR MIN TEMP:  65; 6HR MAX TEMP:  75; 6HR PCP:  0.05;

KENOSHA        CLOUDY    72  64  76 S14       29.74F
6HR MIN TEMP:  65; 6HR MAX TEMP:  75; 6HR PCP:  0.55;

FOND DU LAC    LGT RAIN  69  64  84 S23G29    29.64F
6HR MIN TEMP:  64; 6HR MAX TEMP:  71; 6HR PCP:  0.27;

SHEBOYGAN      LGT RAIN  65  64  97 SE13G21   29.69F
6HR MIN TEMP:  61; 6HR MAX TEMP:  66; 6HR PCP:  0.25;

WEST BEND      RAIN      64  64 100 S15G22    29.71F
JUNEAU         CLOUDY    67  66  94 S14G22    29.71F
6HR MIN TEMP:  63; 6HR MAX TEMP:  69; 6HR PCP:  0.75;

$$

LSZ147-162-290100-
LAKE SUPERIOR

STATION/POSITION TIME  TEMP    WIND        PRES    WAVE
                       AIR SEA DIR/SP/G            HT/PER
                 (UTC) (F)     (DEG/KT/KT) (MB)    (FT/S)
W MID LAKE BUOY  2350   46 39   70/ 12/ 14 1002.4F   1
DEVILS ISLAND    0000   56      80/  7/  7 1000.6F
SAXON HARBOR     2340   67     170/  4/ 11 1000.3F
$$

LMZ867-665-643>646-290100-
LAKE MICHIGAN

STATION/POSITION TIME  TEMP    WIND        PRES    WAVE
                       AIR SEA DIR/SP/G            HT/PER
                 (UTC) (F)     (DEG/KT/KT) (MB)    (FT/S)
CHAMBERS ISLAND  2340   62     140/  8/ 14 1006.1R
S GREEN BAY BUOY 2330   65     160/ 14/ 17 1004.9F
N MID LAKE BUOY  2350   56 53  190/ 12/ 14 1008.0F   6/ 7
NORTHPORT PIER   0000   61     160/  8/ 19 1006.8
KEWAUNEE LAKESHO 2354   56     180/ 15/ 19 1006.3R
SHEBOYGAN LAKESH 0000   56     190/ 19/ 19 1006.3R
PORT WASHINGTON  2340   58     190/  5/  9 1007.8F
ATWATER BUOY     2309   61 51


USA.gov is the U.S. government's official web portal to all federal, state and local government web resources and services.